Weather in Poliske

Ukraine / Zhytomyr Region     50˚53′53″N   28˚32′06″E
temp.,
°C
wind,
m/s
gust,
m/s
humid.,
%
clouds,
%
prec.,
mm/h
press.,
hPa
HPBL,
m
27 november, fri
fri2723:00−1˚wsw49860 0.0 1020237
02:00−1˚wsw510880 0.0 1019281
05:00−1˚wsw5109136 0.0 1018297
08:00wsw5108567 0.0 1017295
11:00+2˚w61083100 0.1 1017500
14:00+3˚w61083100 0.1 1017748
17:00+2˚wsw41188100 0.0 1017373
20:00+2˚w51088100 0.0 1017464
28 november, sat
sat2823:00+1˚wsw489458 0.0 1018206
02:00+1˚wsw369357 0.1 1017165
05:00+1˚wsw359491 0.1 1017137
08:00+2˚sw469786 0.1 1017330
11:00+3˚wsw4582100 0.1 1018577
14:00+2˚sw349299 0.3 1018367
17:00+1˚w2395100 0.4 1018196
20:00e019596 0.4 101936
29 november, sun
sun2923:00wsw0096100 0.1 101961
02:00ese119698 0.1 102075
05:00se239799 0.1 1019153
08:00−1˚se229599 0.1 1019106
11:00+1˚se2390100 0.1 1020289
14:00+1˚s2388100 0.2 1019311
17:00sw3597100 1.1 1019279
20:00−2˚ssw3587100 1.4 1020148
30 november, mon
mon3023:00−3˚ssw379624 0.0 1021216
02:00−1˚wsw468755 0.0 1022452
05:00−2˚wsw349197 0.0 1022209
08:00−3˚wsw229463 0.0 102455
11:00−1˚w238234 0.0 1025403
14:00wnw228061 0.0 1026452
17:00−1˚nnw128395 0.0 1026488
20:00−1˚nnw238098 0.0 1028523
1 december, tue
tue123:00−1˚n2379100 0.0 1028543
02:00−1˚nne2377100 0.0 1028456
05:00−1˚nne2376100 0.0 1028512
08:00−1˚nne2375100 0.0 1028370
11:00nne346787 0.0 1028760
14:00nne357292 0.0 1027652
17:00−2˚nne368980 0.0 1026333
20:00−2˚nne259689 0.2 1026252